TimeEDT,TemperatureF,Dew PointF,Humidity,Sea Level PressureIn,VisibilityMPH,Wind Direction,Wind SpeedMPH,Gust SpeedMPH,PrecipitationIn,Events,Conditions,WindDirDegrees,DateUTC
12:51 AM,57.0,51.1,81,30.08,7.0,South,5.8,-,N/A,,Clear,190,2012-08-30 04:51:00
1:51 AM,55.9,50.0,80,30.09,7.0,South,3.5,-,N/A,,Clear,190,2012-08-30 05:51:00
2:51 AM,55.9,50.0,80,30.08,7.0,SSW,3.5,-,N/A,,Clear,200,2012-08-30 06:51:00
3:51 AM,55.0,48.9,80,30.08,7.0,South,3.5,-,N/A,,Clear,180,2012-08-30 07:51:00
4:51 AM,54.0,48.9,83,30.08,8.0,South,5.8,-,N/A,,Clear,190,2012-08-30 08:51:00
5:51 AM,54.0,48.0,80,30.09,9.0,SSW,4.6,-,N/A,,Clear,200,2012-08-30 09:51:00
6:51 AM,54.0,48.0,80,30.12,7.0,South,4.6,-,N/A,,Clear,190,2012-08-30 10:51:00
7:51 AM,55.9,48.9,77,30.13,7.0,SSW,3.5,-,N/A,,Clear,200,2012-08-30 11:51:00
8:51 AM,61.0,52.0,72,30.14,7.0,South,5.8,-,N/A,,Clear,190,2012-08-30 12:51:00
9:51 AM,66.9,54.0,63,30.13,8.0,South,6.9,-,N/A,,Clear,180,2012-08-30 13:51:00
10:51 AM,72.0,54.0,53,30.13,8.0,SSW,8.1,-,N/A,,Clear,210,2012-08-30 14:51:00
11:51 AM,75.0,52.0,44,30.13,10.0,Variable,6.9,-,N/A,,Clear,0,2012-08-30 15:51:00
12:51 PM,78.1,51.1,39,30.13,10.0,West,5.8,-,N/A,,Clear,280,2012-08-30 16:51:00
1:51 PM,75.9,55.9,50,30.12,10.0,NNW,10.4,-,N/A,,Clear,340,2012-08-30 17:51:00
2:51 PM,77.0,55.0,47,30.09,10.0,WNW,8.1,-,N/A,,Clear,300,2012-08-30 18:51:00
3:51 PM,77.0,55.9,48,30.08,10.0,WNW,8.1,-,N/A,,Clear,290,2012-08-30 19:51:00
4:51 PM,75.9,57.0,52,30.06,10.0,NNW,6.9,-,N/A,,Clear,330,2012-08-30 20:51:00
5:51 PM,75.9,59.0,56,30.06,10.0,Calm,Calm,-,N/A,,Clear,0,2012-08-30 21:51:00
6:51 PM,75.0,60.1,60,30.06,10.0,WNW,3.5,-,N/A,,Clear,300,2012-08-30 22:51:00
7:51 PM,72.0,60.1,66,30.05,10.0,Calm,Calm,-,N/A,,Clear,0,2012-08-30 23:51:00
8:51 PM,66.9,60.1,79,30.05,8.0,South,3.5,-,N/A,,Clear,190,2012-08-31 00:51:00
9:51 PM,66.9,55.0,66,30.05,10.0,South,4.6,-,N/A,,Clear,180,2012-08-31 01:51:00
10:51 PM,68.0,55.0,63,30.04,10.0,South,9.2,-,N/A,,Clear,180,2012-08-31 02:51:00
11:51 PM,68.0,53.1,59,30.04,10.0,South,9.2,-,N/A,,Clear,180,2012-08-31 03:51:00